Location: Brodeslavy
(49.9527°N, 13.5567°E)
Time: 20:23:50
(UTC+00:00)

ASTEX 1 - Pass Details

Date: 17 June 2025
Orbit: 712 x 736 km, 92.7° (Epoch: 16 July)

Event Time Altitude Azimuth Distance (km) Brightness Sun altitude
Rises 21:04:18 0° 12° (NNE) 3,177 7.5 -11.8°
Reaches altitude 10° 21:06:47 10° 21° (NNE) 2,247 6.5 -12.0°
Maximum altitude 21:11:22 36° 88° (E) 1,144 4.2 -12.3°
Enters shadow 21:14:32 18° 146° (SE) 1,751 4.7 -12.5°
